Weather Service Report


087 
ASUS46 KPQR 201510
RWROR 

OREGON REGIONAL WEATHER ROUNDUP
NATIONAL WEATHER SERVICE PORTLAND OR
800 AM PDT SAT OCT 20 2018

NOTE: "FAIR" INDICATES FEW OR NO CLOUDS BELOW 12,000 FEET WITH
NO SIGNIFICANT WEATHER AND/OR OBSTRUCTIONS TO VISIBILITY.

ORZ001>013-201600-
NORTHWEST OREGON

  
CITY           SKY/WX    TMP DP  RH WIND       PRES   REMARKS
ASTORIA        FOG       39  39 100 CALM      30.18F VSB 1/2          
TILLAMOOK      FOG       41  41 100 CALM      30.18F VSB<1/4          
NEWPORT        CLEAR     41  41 100 E5        30.16F                  
PORTLAND       CLOUDY    51  48  89 NW5       30.18F FOG              
VANCOUVER WA   CLOUDY    50  47  89 VRB5      30.18S                  
SCAPPOOSE      CLEAR     41  41 100 CALM      30.17S                  
HILLSBORO      CLEAR     37  35  92 CALM      30.17S                  
AURORA         CLOUDY    46  44  93 NE6       30.17F FOG              
MCMINNVILLE    FOG       34  34 100 CALM      30.16F VSB 1/4          
SALEM          PTCLDY    43  40  89 CALM      30.15F FOG              
CORVALLIS      FOG       36  34  93 CALM      30.16F VSB 1/2          
EUGENE         PTCLDY    34  30  85 CALM      30.15F FOG              
$$

ORZ021-028-201600-
SOUTHWEST OREGON

  
CITY           SKY/WX    TMP DP  RH WIND       PRES   REMARKS
NORTH BEND     FOG       45  45 100 CALM      30.10F VSB 1/4          
BROOKINGS      LGT RAIN  45  45 100 CALM      30.06S VSB 1/4          
ROSEBURG       CLEAR     42  39  89 CALM      30.14F                  
SEXTON SUMMIT  CLEAR     58  26  29 E8        30.17S                  
GRANTS PASS    LGT RAIN  37  32  81 CALM      30.16S                  
MEDFORD        CLEAR     40  32  73 CALM      30.14F                  
$$

ORZ014>016-041-201600-
COLUMBIA GORGE

  
CITY           SKY/WX    TMP DP  RH WIND       PRES   REMARKS
TROUTDALE      CLOUDY    48  47  96 NW5       30.18S FOG              
HOOD RIVER     CLEAR     36  34  93 S3        30.25S                  
THE DALLES     CLEAR     36  34  92 CALM      30.25F FOG              
$$

ORZ029>031-041-044-049-050-061>064-502-503-505>511-201600-
EASTERN OREGON

  
CITY           SKY/WX    TMP DP  RH WIND       PRES   REMARKS
MADRAS         NOT AVBL                                               
REDMOND        PTCLDY    31  20  63 S5        30.23F                  
BEND           PTCLDY    36  21  55 S6        30.24F                  
PRINEVILLE     PTCLDY    32  21  64 CALM      30.24F                  
KLAMATH FALLS  PTCLDY    30  25  81 CALM      30.26S                  
LAKEVIEW       CLEAR     28  21  75 NW3       30.28F                  
HERMISTON      CLEAR     32  31  96 S3        30.23S FOG              
PENDLETON      CLEAR     38  34  85 SE5       30.22R                  
JOHN DAY       PTCLDY    45  28  52 SE8       30.28S                  
MEACHAM        CLEAR     28  25  88 CALM      30.26S                  
LA GRANDE      CLEAR     30  28  93 CALM      30.31S FOG              
BAKER CITY     CLEAR     29  26  89 CALM      30.32R FOG              
BURNS          MOCLDY    27  18  69 CALM      30.30F                  
ROME             N/A     34  24  67 CALM      30.30R                  
ONTARIO        PTCLDY    35  30  82 CALM      30.34S                  
$$
  

Return to Home page


Western Regional Climate Center, wrcc@dri.edu